Location: Aragoneses
(41.0275°N, 4.3847°W)
Time: 09:57:14
(UTC+00:00)

ISS - Pass Details

Date: 23 February 2026
Orbit: 416 x 426 km, 51.6° (Epoch: 10 March)

Event Time Altitude Azimuth Distance (km) Brightness Sun altitude
Exits shadow 06:22:06 - 317° (NW) 1,889 -0.9 -8.1°
Reaches altitude 10° 06:23:30 10° 332° (NNW) 1,495 -1.3 -7.8°
Maximum altitude 06:25:31 15° 10° (N) 1,229 -1.3 -7.4°
Drops below altitude 10° 06:27:32 10° 47° (NE) 1,492 -0.4 -7.0°
Sets 06:30:19 0° 72° (ENE) 2,354 1.4 -6.5°
